Location: *
(47.8307°S, 178.3954°E)
Time: 08:18:42
(UTC+00:00)

BREEZE-M R/B - Pass Details

Date: 12 August 2024
Orbit: 311 x 4101 km, 49.7° (Epoch: 18 September)

Event Time Altitude Azimuth Distance (km) Brightness Sun altitude
Exits shadow 17:54:18 16° 253° (WSW) 3,383 6.2 -13.6°
Maximum altitude 18:01:48 82° 338° (NNW) 985 4.0 -12.4°
Drops below altitude 10° 18:06:20 10° 65° (ENE) 2,037 7.0 -11.6°
Sets 18:08:00 0° 65° (ENE) 2,708 8.1 -11.4°
